Vertical_Velocity
-2 -2 -3 -3 2 -3 17 17 -28 12 28 -7 -1 1 -6 1 -2 -2 -1 2 0 1 -1 0 1 2 2 1 1 3 2 3 3 6 -1 -0 3 -2 -2 -0 0 -4 -2 1 -1 -1 -0 1 0
-3 -4 -3 -9 -1 20 27 -11 22 -1 -11 -1 -2 5 -2 -4 -2 -1 -0 -2 -2 -1 1 0 1 -0 1 1 1 1 -1 -0 0 -0 -1 4 1 0 -2 0 -3 -0 -4 1 -0 -1 -1 -2 0
-3 -4 -5 22 10 18 25 -7 -5 -0 -2 5 -5 -6 -2 -2 -1 -2 -3 -0 -0 0 3 1 3 4 3 3 1 1 1 -0 0 0 -1 2 -1 1 3 -1 -2 -0 -3 -2 1 -2 -0 -3 -3
-4 -4 -9 -5 33 -11 -1 -1 13 -3 -2 3 -3 -3 -2 -1 0 1 -0 1 -1 -1 -2 -0 -1 -1 -0 -0 -1 1 -1 -0 1 1 1 1 -0 -0 4 -0 -1 -1 -0 -1 -1 -2 -1 -0 -1
-3 -5 -6 -0 9 -9 3 -7 -4 9 0 5 12 -7 -0 -1 -0 -1 -0 -1 -1 -2 -2 -1 -1 -0 0 -2 -1 -3 -2 -2 -1 -1 -0 -1 -2 -2 -0 -1 2 -2 -2 3 1 -0 -3 -1 -0
0 -10 2 9 11 -12 -4 -3 -2 -5 7 2 -3 -2 -1 -2 -2 -2 -1 -1 -1 -1 -1 -2 -2 -1 -1 -1 -0 -1 -1 -1 -1 -1 -1 -1 0 0 -0 -1 -1 -0 -0 -0 1 2 -1 -1 -2
-12 11 13 -3 11 5 6 4 6 2 27 -2 2 1 -2 -1 -1 -1 -1 -0 -0 -2 -3 -2 -2 1 -1 0 -1 1 -1 1 1 1 0 -0 -0 -0 -1 -1 -0 -0 -1 1 -0 0 -0 1 -1
-7 -14 -3 -4 6 27 -15 -2 14 11 -5 -0 -4 14 -2 -0 0 -1 -2 -1 -0 -2 -2 -3 -2 -4 -1 3 -2 -1 1 -1 -1 0 1 1 -1 -1 -1 1 0 -1 -1 0 1 0 -0 0 0
-5 3 21 1 2 31 -8 45 2 -4 0 -2 -4 -3 -2 -2 -1 -0 -0 -0 -1 1 -0 -2 -3 -4 -3 -6 2 0 -1 0 -0 -0 -0 1 1 0 -1 0 0 0 1 1 -0 -1 -0 0 0
-3 0 14 -3 2 15 -4 3 1 22 2 1 -2 -2 -1 -0 2 0 -0 -2 -0 -2 -2 -1 -2 -2 -1 -2 -3 -1 -1 -0 -0 -1 1 -0 -1 -1 -2 -1 -0 0 1 1 0 -0 0 -0 1
8 32 -10 -15 -10 8 -5 -2 -11 10 -8 -2 -1 -1 0 2 1 -4 -3 -6 -5 -3 -2 -6 -2 -1 -1 -3 -2 -0 -2 -1 -1 -1 1 -0 1 -0 -1 -3 -2 -2 -0 0 -0 -0 -1 0 -2
15 -8 1 -2 3 5 1 -1 -1 -2 0 1 1 0 1 0 0 0 -0 -1 0 -1 -1 -2 -5 -1 -1 -1 0 -0 -2 -5 2 1 1 -1 -1 -1 -1 0 -2 -1 -3 -2 -0 -2 -1 0 1
12 -3 -0 -4 1 -4 -1 -4 -1 1 0 0 0 -0 -2 -1 -1 -1 -2 -2 -1 -1 -2 -1 0 -3 -0 0 -3 3 -17 -6 -3 1 -1 1 -1 -1 -1 -1 0 -1 -0 -2 -1 0 -1 -1 0
7 -7 -1 -3 -2 0 -2 -1 -1 -0 1 0 -0 -1 -1 -0 -2 -2 -0 -3 -2 -2 0 -0 -0 -0 2 -2 -0 0 -3 0 0 2 -4 0 -2 -0 1 -2 -0 -0 -2 -0 -4 -0 -2 -1 0
-7 -2 -0 5 0 -2 -4 -1 -3 1 1 -1 -1 1 -1 -0 1 -1 -1 -2 -0 1 -1 -1 2 0 2 -8 4 -0 6 -0 -3 -1 2 3 -1 -1 1 -1 -0 0 1 -2 -0 -1 -2 -1 -4
-0 14 12 -2 -7 -5 -1 7 -0 -1 -2 -0 -1 0 -1 -1 -2 -1 -1 1 1 1 -4 -1 -2 -1 -1 -2 3 -2 3 0 0 -1 0 -2 -5 -0 -2 -2 3 -1 -1 2 -1 -1 0 1 0
-7 8 11 -2 -5 1 -1 2 -2 -1 -1 -0 0 2 1 -2 -3 -4 -2 1 -0 -4 -3 -5 -2 -3 -3 -4 -1 -0 -0 -1 -3 -4 -7 -2 -10 -7 -5 6 3 1 -0 -6 14 -4 -0 0 -1
25 -5 -6 27 -1 -5 8 -3 2 0 -2 2 3 2 2 1 1 -1 -2 -2 -2 -2 -3 -3 -5 -6 -3 -2 -3 -4 -6 -4 -4 -3 1 -5 -3 -8 -0 1 -1 3 2 2 25 3 3 1 0
-4 4 10 -9 -3 1 -0 -1 -1 3 -2 -1 7 5 -2 -1 -2 -2 -3 -2 -2 -1 -0 -2 -2 -2 -5 -3 -3 -1 -5 2 1 -2 -4 -2 -5 35 -12 0 -6 6 1 -1 1 2 2 -1 1
-3 2 6 -7 -1 -4 -3 4 -3 -3 7 3 3 4 -0 3 2 -2 2 -3 -2 -2 -3 -2 -2 0 -0 1 2 0 -0 -0 3 -3 -2 -2 -3 7 -14 -10 -6 -7 -5 8 7 5 2 3 5
-0 4 11 18 -5 -4 -1 1 -2 -6 -2 4 -3 -10 2 5 -0 3 0 -1 -1 2 -3 -1 -1 -2 -3 -2 0 -2 -1 -1 -2 1 2 4 6 2 -1 -3 1 1 1 -3 -1 -1 2 1 6
19 -12 -1 -3 -0 14 -10 12 -1 2 0 -11 3 1 2 -0 2 4 -1 -2 -3 2 -1 -2 -0 -1 -0 -2 -2 -3 -2 -3 0 -1 -0 -2 0 1 0 2 -2 -0 2 1 1 3 -1 0 -2
17 -3 -2 -1 -1 -3 -1 6 6 -5 1 7 1 -0 2 1 -1 0 -2 -2 -2 1 -1 -2 -1 -1 -2 -1 -1 -1 1 3 3 2 1 3 5 3 -0 -1 -1 -2 1 1 -1 1 1 -4 3
-4 -2 -2 -2 8 7 9 3 -2 18 13 2 -2 1 -3 -1 2 -1 -1 -2 -1 1 -2 -2 -0 0 0 1 3 1 -0 0 -0 1 1 2 0 2 2 1 -1 1 -3 1 2 1 2 4 -3
0 0 5 6 9 -7 -7 1 4 4 -9 -1 -3 -0 2 -0 0 -1 -3 -3 -0 -1 -2 -1 -0 2 1 0 1 0 -0 -0 0 -1 -2 1 2 5 7 8 7 8 6 1 -1 4 5 6 -2
-11 1 4 -3 3 -2 -6 0 9 -2 -4 -1 1 -2 0 1 0 -0 -3 -2 0 -2 -1 -0 1 1 0 -0 0 1 -1 1 2 1 1 0 -3 -2 -1 -0 3 6 8 4 -1 1 0 -1 -0
5 3 5 2 -6 5 8 4 -8 -5 -2 -2 1 -0 0 1 -0 -0 -1 -1 -2 -1 -2 -1 1 1 1 -0 -0 -1 -1 -0 -1 0 -0 -2 -3 -4 -3 -1 -1 3 3 6 2 -0 -0 1 2
-8 18 4 -1 -1 -1 -1 2 9 -7 6 0 4 -0 1 0 -0 -0 -2 -1 -2 -0 -1 1 1 -2 -2 -2 -2 -1 -0 -0 0 -1 -0 -1 -1 -3 -5 -2 -2 -1 0 3 2 2 1 -2 2
-4 -1 -3 3 -1 1 0 7 1 6 -6 -0 -1 -1 0 -1 -1 -1 -1 -2 -0 -0 -1 -0 0 -2 -0 -1 -2 -1 -1 0 -1 -2 -2 -3 -2 -2 -1 -2 -1 -0 -2 -0 3 2 4 -0 0
-7 12 12 -1 -2 -1 2 2 -9 -5 -2 -1 -3 2 0 -1 -1 -1 -0 -2 0 -1 1 -0 -1 -1 -2 -1 -0 -0 -1 -1 -2 -2 -3 -2 -2 -1 -2 -1 -0 -0 -0 0 -0 -0 1 1 3
Height
3161 3161 3160 3160 3167 3158 3148 3152 3156 3158 3159 3158 3156 3156 3156 3156 3155 3159 3156 3156 3154 3154 3154 3155 3155 3155 3156 3156 3156 3158 3158 3159 3157 3158 3158 3159 3158 3157 3158 3158 3157 3158 3156 3156 3155 3155 3155 3154 3154
3160 3160 3161 3162 3163 3151 3146 3152 3156 3158 3158 3156 3155 3158 3157 3156 3156 3156 3157 3156 3155 3155 3155 3155 3155 3156 3156 3156 3157 3157 3157 3157 3158 3157 3156 3156 3157 3156 3157 3156 3156 3156 3156 3155 3154 3154 3154 3154 3154
3159 3160 3162 3163 3158 3152 3150 3155 3158 3158 3156 3158 3156 3156 3156 3156 3157 3157 3157 3157 3156 3156 3155 3155 3156 3156 3155 3156 3155 3155 3154 3155 3155 3155 3155 3156 3155 3155 3154 3154 3155 3154 3155 3155 3154 3154 3153 3153 3153
3158 3162 3163 3161 3153 3154 3157 3157 3159 3157 3157 3157 3157 3156 3157 3156 3157 3158 3157 3157 3156 3155 3155 3154 3154 3154 3153 3153 3152 3152 3152 3153 3153 3153 3153 3153 3153 3153 3152 3153 3153 3153 3153 3153 3153 3152 3152 3152 3152
3157 3161 3159 3156 3153 3158 3159 3159 3159 3158 3158 3158 3158 3155 3156 3156 3156 3156 3156 3155 3154 3154 3154 3153 3153 3152 3152 3151 3151 3151 3150 3150 3150 3150 3150 3150 3150 3150 3151 3151 3151 3151 3152 3152 3152 3152 3152 3152 3151
3160 3161 3157 3151 3153 3159 3160 3160 3160 3160 3159 3158 3157 3155 3156 3155 3156 3155 3155 3154 3153 3153 3153 3152 3152 3151 3150 3150 3150 3149 3148 3148 3147 3146 3146 3146 3147 3146 3147 3148 3148 3149 3149 3150 3150 3150 3151 3151 3151
3159 3159 3154 3151 3153 3158 3159 3160 3160 3160 3159 3155 3157 3156 3155 3155 3154 3154 3153 3153 3153 3152 3151 3151 3150 3149 3148 3147 3146 3145 3144 3144 3143 3142 3143 3143 3143 3142 3143 3144 3144 3145 3146 3146 3147 3147 3148 3148 3148
3157 3158 3155 3154 3154 3155 3160 3160 3160 3158 3155 3155 3155 3158 3154 3154 3153 3153 3152 3152 3151 3150 3150 3149 3148 3147 3146 3145 3144 3142 3141 3139 3139 3139 3139 3138 3138 3138 3139 3140 3140 3141 3142 3143 3143 3144 3145 3145 3145
3156 3156 3151 3153 3155 3154 3157 3159 3157 3154 3154 3153 3153 3153 3153 3153 3152 3151 3151 3151 3150 3149 3149 3147 3146 3144 3143 3141 3140 3139 3137 3135 3135 3135 3134 3134 3134 3134 3134 3135 3136 3136 3137 3138 3139 3140 3141 3141 3141
3155 3154 3151 3154 3155 3155 3156 3158 3158 3158 3155 3153 3152 3152 3152 3151 3151 3151 3151 3150 3150 3149 3148 3147 3145 3144 3142 3139 3137 3136 3134 3132 3131 3131 3131 3131 3130 3130 3130 3131 3132 3133 3134 3134 3135 3136 3137 3137 3138
3156 3154 3152 3155 3154 3155 3153 3153 3154 3154 3152 3151 3152 3151 3152 3152 3151 3151 3151 3150 3149 3149 3147 3146 3144 3143 3141 3139 3137 3134 3133 3131 3129 3127 3127 3126 3127 3127 3127 3127 3127 3128 3129 3130 3131 3132 3132 3133 3133
3155 3153 3153 3153 3153 3154 3152 3151 3151 3151 3151 3151 3151 3151 3151 3151 3151 3151 3151 3150 3148 3146 3145 3143 3141 3140 3139 3137 3135 3133 3131 3130 3128 3125 3125 3124 3124 3123 3124 3124 3124 3124 3124 3125 3126 3126 3127 3128 3129
3154 3152 3150 3150 3152 3151 3150 3150 3150 3150 3150 3150 3150 3150 3150 3150 3150 3149 3149 3148 3146 3144 3142 3141 3139 3136 3134 3133 3130 3128 3126 3126 3125 3123 3122 3121 3121 3120 3120 3119 3120 3120 3120 3120 3121 3121 3122 3123 3123
3151 3150 3149 3150 3150 3150 3149 3149 3150 3150 3149 3149 3150 3150 3149 3149 3149 3148 3147 3145 3143 3141 3139 3137 3134 3131 3129 3128 3126 3124 3123 3123 3122 3120 3119 3118 3118 3116 3116 3115 3115 3115 3115 3115 3114 3115 3116 3117 3117
3149 3151 3151 3151 3150 3149 3150 3150 3148 3149 3149 3150 3151 3150 3148 3148 3147 3146 3144 3141 3139 3137 3134 3132 3129 3127 3125 3123 3121 3120 3120 3119 3118 3116 3114 3114 3112 3111 3111 3110 3110 3110 3111 3108 3109 3109 3110 3110 3111
3149 3151 3149 3148 3149 3149 3150 3150 3146 3148 3150 3151 3150 3149 3146 3146 3145 3143 3140 3138 3135 3132 3129 3127 3125 3123 3120 3119 3118 3117 3116 3114 3113 3112 3110 3108 3106 3106 3105 3104 3104 3104 3104 3104 3103 3103 3103 3103 3104
3147 3144 3145 3148 3147 3149 3151 3148 3146 3148 3150 3150 3150 3149 3147 3145 3142 3139 3137 3137 3134 3129 3127 3124 3122 3119 3117 3115 3113 3111 3110 3109 3107 3106 3104 3104 3101 3100 3099 3098 3097 3098 3097 3096 3098 3096 3096 3096 3096
3139 3142 3144 3144 3148 3147 3149 3148 3146 3147 3148 3149 3150 3148 3147 3145 3142 3137 3135 3133 3131 3128 3125 3123 3120 3117 3115 3112 3110 3108 3107 3106 3105 3103 3102 3101 3098 3094 3093 3091 3089 3089 3088 3089 3089 3088 3089 3087 3089
3140 3140 3141 3144 3143 3147 3147 3147 3147 3147 3147 3149 3149 3148 3147 3144 3140 3136 3133 3131 3128 3126 3123 3121 3119 3116 3113 3113 3111 3109 3107 3103 3100 3098 3095 3093 3092 3088 3086 3083 3083 3080 3079 3078 3079 3079 3079 3078 3080
3141 3141 3142 3144 3142 3144 3146 3146 3147 3147 3148 3148 3148 3147 3146 3144 3141 3137 3133 3130 3127 3124 3121 3118 3116 3114 3112 3109 3107 3103 3100 3098 3096 3091 3088 3085 3082 3080 3076 3074 3072 3071 3069 3069 3068 3068 3067 3068 3069
3140 3140 3140 3142 3140 3142 3144 3144 3144 3145 3145 3145 3144 3144 3144 3142 3139 3136 3132 3130 3126 3124 3119 3114 3110 3107 3104 3100 3096 3092 3089 3085 3082 3080 3077 3075 3071 3068 3064 3061 3059 3059 3058 3056 3057 3057 3057 3057 3059
3138 3137 3139 3139 3140 3138 3140 3137 3140 3141 3142 3143 3143 3143 3142 3140 3137 3134 3130 3127 3123 3120 3113 3109 3105 3101 3097 3092 3088 3083 3079 3075 3072 3067 3064 3060 3058 3055 3051 3047 3044 3043 3042 3042 3043 3044 3044 3046 3047
3137 3135 3137 3138 3139 3139 3139 3139 3137 3139 3140 3140 3141 3140 3139 3137 3133 3130 3126 3123 3119 3116 3110 3105 3100 3095 3090 3085 3080 3074 3069 3065 3060 3056 3052 3048 3044 3041 3036 3032 3029 3026 3025 3024 3025 3026 3029 3032 3034
3134 3135 3136 3137 3137 3136 3132 3135 3135 3134 3137 3138 3139 3138 3136 3133 3130 3126 3123 3120 3116 3110 3105 3100 3095 3090 3084 3078 3072 3065 3059 3054 3049 3045 3039 3035 3031 3028 3024 3020 3015 3011 3009 3009 3009 3009 3011 3014 3018
3133 3134 3133 3135 3133 3133 3131 3134 3133 3133 3135 3136 3136 3136 3134 3131 3126 3123 3119 3115 3110 3105 3100 3095 3090 3084 3077 3071 3064 3056 3049 3043 3039 3033 3028 3024 3019 3015 3011 3006 3002 3000 2997 2995 2994 2995 2996 2998 3001
3131 3132 3129 3130 3121 3125 3130 3130 3131 3132 3133 3134 3134 3133 3132 3129 3124 3120 3115 3110 3106 3101 3096 3090 3084 3077 3070 3063 3055 3047 3040 3035 3029 3023 3017 3012 3006 3000 2994 2989 2985 2983 2982 2980 2978 2979 2980 2982 2985
3128 3129 3130 3128 3127 3125 3122 3130 3130 3131 3132 3132 3132 3131 3130 3126 3121 3117 3111 3106 3102 3097 3091 3084 3078 3072 3064 3056 3046 3039 3032 3026 3019 3013 3006 2999 2991 2984 2978 2974 2970 2968 2966 2965 2965 2964 2964 2966 2970
3125 3127 3128 3128 3128 3127 3120 3124 3127 3130 3132 3131 3131 3129 3127 3123 3118 3113 3108 3103 3098 3092 3086 3080 3073 3065 3057 3048 3039 3032 3024 3017 3010 3001 2993 2985 2977 2970 2964 2960 2956 2954 2952 2951 2950 2951 2953 2953 2956
3123 3124 3125 3125 3125 3122 3118 3126 3127 3129 3129 3130 3129 3127 3124 3119 3114 3109 3104 3100 3094 3089 3083 3076 3068 3060 3051 3041 3033 3024 3016 3008 2999 2991 2981 2973 2966 2960 2955 2950 2948 2945 2943 2941 2940 2939 2940 2941 2944
3119 3120 3121 3122 3124 3123 3123 3126 3125 3127 3128 3127 3127 3125 3122 3116 3110 3106 3102 3097 3091 3086 3079 3072 3064 3055 3044 3035 3027 3018 3009 3001 2992 2982 2974 2967 2959 2953 2948 2943 2940 2936 2933 2931 2930 2929 2929 2931 2933